Overview Statistics Trail Chart Weather Telemetry Raw packets
 

This is the latest recevied weather packets stored in our database for station/object W6MAF. If no packets are shown the sender has not sent any weather packets the latest 10 day(s).

<< 67 68 69 70 71 72 73 >>
Time Temp. Humidity Pressure Rain* Wind** Luminosity Snow
1788185317 17.22° C 75% - 0 mm 4.02 m/s, 239° - -
1788185019 16.67° C 76% - 0 mm 4.02 m/s, 194° - -
1788184718 16.67° C 76% - 0 mm 2.68 m/s, 205° - -
1788184420 16.67° C 77% - 0 mm 3.13 m/s, 232° - -
1788184121 16.67° C 79% - 0 mm 4.92 m/s, 222° - -
1788183823 16.67° C 81% - 0 mm 5.36 m/s, 226° - -
1788183525 16.11° C 82% - 0 mm 5.81 m/s, 245° - -
1788183227 16.11° C 83% - 0 mm 4.47 m/s, 219° - -
1788182926 16.11° C 83% - 0 mm 5.81 m/s, 229° - -
1788182629 16.11° C 82% - 0 mm 5.81 m/s, 218° - -
1788182331 16.11° C 81% - 0 mm 5.81 m/s, 217° - -
1788182033 16.11° C 82% - 0 mm 5.81 m/s, 239° - -
1788181439 16.11° C 81% - 0 mm 5.81 m/s, 231° - -
1788181137 16.11° C 80% - 0 mm 4.92 m/s, 250° - -
1788180839 16.11° C 79% - 0 mm 5.81 m/s, 235° - -
1788180542 16.67° C 78% - 0 mm 4.92 m/s, 242° - -
1788180244 16.67° C 76% - 0 mm 4.92 m/s, 232° - -
1788179946 16.67° C 75% - 0 mm 4.92 m/s, 236° - -
1788179649 16.67° C 73% - 0 mm 5.36 m/s, 238° - -
1788179348 16.67° C 72% - 0 mm 5.81 m/s, 233° - -
1788179050 16.67° C 70% - 0 mm 5.36 m/s, 221° - -
1788178752 16.67° C 69% - 0 mm 4.92 m/s, 221° - -
1788178455 16.67° C 66% - 0 mm 4.92 m/s, 239° - -
1788178157 17.22° C 65% - 0 mm 6.26 m/s, 222° - -
1788177859 17.22° C 62% - 0 mm 4.92 m/s, 212° - -

* Rain latest hour (hover to see other rain measurements)
** Current wind speed in m/s (hover to see current wind gust speed)